Weather in Nykobing Falster

Denmark     54°46′11″N   11°52′19″E
temp.,
°C
wind,
m/s
gust,
m/s
humid.,
%
clouds,
%
prec.,
mm/h
press.,
hPa
HPBL,
m
9 may, sun
sun923:00+9sse61269100 0.0 1012399
02:00+7sse81592100 1.6 1009604
05:00+8s8168991 2.9 1007490
08:00+10ssw7139089 2.9 1007302
11:00+14ssw710826 0.0 1007307
14:00+17ssw71173100 0.0 1007688
17:00+19s5116999 0.0 1005536
20:00+16se41084100 0.0 1005177
10 may, mon
mon1023:00+14sse5159188 0.0 1004280
02:00+14s71687100 0.0 1003287
05:00+14ssw71684100 0.1 1004311
08:00+15sse6118691 0.1 1004189
11:00+18s7137798 0.0 1006358
14:00+20ssw5969100 0.0 1007652
17:00+18w6980100 0.5 1009520
20:00+15nw3693100 2.0 1010227
11 may, tue
tue1123:00+12nw229387 0.0 101134
02:00+11n3795100 0.0 1011128
05:00+10n499187 0.0 1010193
08:00+13nne51188100 0.0 1009373
11:00+12n81189100 0.0 1009483
14:00+14nne8118492 0.0 1008548
17:00+14n71086100 0.0 1008451
20:00+11n71090100 0.1 1007265
12 may, wed
wed1223:00+10n5891100 0.0 1006178
02:00+10n4793100 0.0 1005150
05:00+10nw4597100 0.5 1004111
08:00+12nw3391100 0.5 1004160
11:00+15sw228565 0.1 1004361
14:00+15ssw548561 0.1 1006435
17:00+12w3391100 0.1 1006235
20:00+12wnw3493100 0.2 1006188
13 may, thu
thu1323:00+11wnw2295100 0.1 100682
02:00+11nw1196100 0.2 100628
05:00+11ene1198100 0.2 100530
08:00+11e469781 0.3 1006218
11:00+14e687367 0.0 1006570
14:00+15e696132 0.0 1005639
17:00+14e5765100 0.0 1005496
20:00+12ene2278100 0.0 100525